EW8337 Weather Reports


time (UTC)temp
C
wind
direction
speed
KPH
gust
KPH
rain 1hr
cm
rain 24hr
cm
rain mn
cm
humidity
%
barometer
mb
20260505140158 3 170 1.6 8.0 0.00 0.08 0.03 87 1014.4
20260505130158 3 130 3.2 4.8 0.00 0.08 0.03 88 1013.4
20260505124658 5 0 0.0 0.0 0.00 0.08 0.03 83 1013.1
20260505124158 5 0 0.0 0.0 0.00 0.08 0.03 83 1013.2
20260505123658 5 0 0.0 0.0 0.00 0.08 0.03 83 1013.2
20260505123159 5 0 0.0 0.0 0.00 0.08 0.03 83 1013.1
20260505122658 5 0 0.0 0.0 0.00 0.08 0.03 83 1012.9
20260505122158 5 0 0.0 0.0 0.00 0.08 0.03 83 1012.9
20260505121658 5 0 0.0 0.0 0.00 0.08 0.03 83 1012.8
20260505121159 5 0 0.0 0.0 0.00 0.08 0.03 83 1012.7
20260505120658 5 0 0.0 0.0 0.00 0.08 0.03 83 1012.7
20260505120158 5 0 0.0 0.0 0.00 0.08 0.03 83 1012.7
20260505115658 5 0 0.0 0.0 0.00 0.08 0.03 83 1012.6
20260505115158 5 0 0.0 0.0 0.00 0.08 0.03 83 1012.6
20260505114658 5 0 0.0 0.0 0.00 0.08 0.03 83 1012.7
20260505114158 5 0 0.0 0.0 0.00 0.08 0.03 83 1012.5
20260505113658 5 0 0.0 0.0 0.00 0.08 0.03 83 1012.5
20260505113158 5 0 0.0 0.0 0.00 0.08 0.03 83 1012.4
20260505112658 5 0 0.0 0.0 0.00 0.08 0.03 83 1012.4
20260505111658 5 0 0.0 0.0 0.00 0.08 0.03 83 1012.3
20260505111158 5 0 0.0 0.0 0.00 0.08 0.03 83 1012.4
20260505110659 5 0 0.0 0.0 0.00 0.08 0.03 83 1012.5
20260505110158 5 0 0.0 0.0 0.00 0.08 0.03 83 1012.4
20260505102158 5 0 0.0 0.0 0.00 0.08 0.03 83 1012.4
20260505101659 5 0 0.0 0.0 0.00 0.08 0.03 83 1012.4
20260505101159 5 0 0.0 0.0 0.00 0.08 0.03 83 1012.4
20260505100659 5 0 0.0 0.0 0.00 0.08 0.03 83 1012.3
20260505100159 5 0 0.0 0.0 0.00 0.08 0.03 83 1012.3
20260505095659 5 0 0.0 0.0 0.00 0.08 0.03 83 1012.3
20260505095159 5 0 0.0 0.0 0.00 0.08 0.03 83 1012.2
20260505094658 5 0 0.0 0.0 0.00 0.08 0.03 83 1012.3
20260505094158 5 0 0.0 0.0 0.00 0.08 0.03 83 1012.2
20260505093659 5 0 0.0 0.0 0.00 0.08 0.03 83 1012.2
20260505093158 5 0 0.0 0.0 0.00 0.08 0.03 83 1012.0
20260505092659 5 0 0.0 0.0 0.00 0.08 0.03 83 1012.0
20260505092158 5 1 0.0 0.0 0.00 0.08 0.03 83 1012.2
20260505091658 5 350 0.0 0.0 0.00 0.08 0.03 83 1012.2
20260505091159 5 350 0.0 0.0 0.00 0.08 0.03 83 1012.1
20260505090658 5 335 0.0 0.0 0.00 0.08 0.03 83 1012.1
20260505085659 5 51 0.0 0.0 0.00 0.08 0.03 82 1012.4
20260505085158 6 35 0.0 3.2 0.00 0.08 0.03 82 1012.5
20260505084659 6 27 1.6 9.7 0.00 0.08 0.03 83 1012.7
20260505084158 6 35 0.0 4.8 0.00 0.08 0.03 83 1012.7
20260505083159 6 99 0.0 0.0 0.00 0.08 0.03 82 1012.8
20260505082658 6 27 0.0 1.6 0.00 0.08 0.03 81 1012.8
20260505082158 6 26 0.0 0.0 0.00 0.08 0.03 82 1012.9
20260505081658 6 75 0.0 0.0 0.00 0.08 0.03 83 1013.1
20260505081158 6 1 0.0 0.0 0.00 0.08 0.03 83 1013.0
20260505080658 6 26 1.6 4.8 0.00 0.08 0.03 82 1013.1
20260505080158 6 287 0.0 0.0 0.00 0.08 0.03 83 1013.1
20260505075659 6 345 0.0 3.2 0.00 0.08 0.03 83 1012.9
20260505075159 6 336 0.0 1.6 0.00 0.08 0.03 82 1013.0
20260505074659 6 341 0.0 3.2 0.00 0.08 0.03 83 1013.1
20260505074159 6 347 1.6 4.8 0.00 0.08 0.03 83 1013.0
20260505073659 6 2 0.0 4.8 0.00 0.08 0.03 83 1013.1
20260505073158 6 356 1.6 4.8 0.03 0.08 0.03 83 1013.1
20260505072658 6 345 1.6 4.8 0.03 0.08 0.03 84 1013.1
20260505071659 6 352 0.0 8.0 0.03 0.08 0.03 85 1013.2
20260505070658 6 5 3.2 4.8 0.03 0.08 0.03 85 1013.3
20260505070159 6 10 3.2 9.7 0.03 0.08 0.03 85 1013.3
20260505065659 6 359 0.0 3.2 0.03 0.08 0.03 85 1013.3
20260505065159 6 11 0.0 4.8 0.03 0.08 0.03 85 1013.2
20260505064658 6 11 1.6 4.8 0.03 0.08 0.03 85 1013.3
20260505064159 6 13 1.6 4.8 0.03 0.08 0.03 85 1013.1
20260505063659 6 336 0.0 4.8 0.03 0.08 0.03 85 1013.1
20260505062659 6 11 1.6 8.0 0.03 0.05 0.00 84 1013.2
20260505062159 6 3 3.2 8.0 0.03 0.05 0.00 84 1013.1
20260505061658 7 15 3.2 8.0 0.03 0.05 0.00 83 1013.1
20260505061159 7 15 3.2 8.0 0.03 0.05 0.00 82 1013.2
20260505060659 7 351 4.8 9.7 0.03 0.05 0.00 82 1013.5
20260505060159 7 343 1.6 8.0 0.03 0.05 0.00 80 1013.6
20260505055659 7 17 3.2 8.0 0.03 0.05 0.05 79 1013.6
20260505055159 7 19 1.6 4.8 0.03 0.05 0.05 77 1013.7
20260505054658 7 355 1.6 9.7 0.03 0.05 0.05 76 1013.8
20260505054159 7 341 3.2 4.8 0.03 0.05 0.05 77 1013.8
20260505053659 7 345 1.6 8.0 0.03 0.05 0.05 75 1013.5
20260505053159 7 0 0.0 0.0 0.03 0.05 0.05 74 1013.4
20260505052659 7 346 1.6 8.0 0.00 0.03 0.03 73 1013.5
20260505051159 7 335 1.6 4.8 0.00 0.03 0.03 72 1013.6
20260505041659 8 305 0.0 3.2 0.00 0.03 0.03 72 1012.9
20260505041159 8 4 1.6 4.8 0.00 0.03 0.03 71 1012.6
20260505040700 8 12 1.6 4.8 0.00 0.03 0.03 71 1012.6
20260505040200 8 348 0.0 0.0 0.00 0.03 0.03 72 1012.4
20260505035659 8 38 0.0 8.0 0.00 0.03 0.03 72 1012.5
20260505035159 8 22 1.6 8.0 0.00 0.03 0.03 71 1012.6
20260505034659 8 34 3.2 8.0 0.00 0.03 0.03 71 1012.6
20260505033659 8 351 9.7 14.5 0.00 0.03 0.03 70 1012.8
20260505033159 8 337 8.0 11.3 0.00 0.03 0.03 70 1012.7
20260505032659 8 330 6.4 16.1 0.00 0.03 0.03 70 1012.7
20260505032159 8 334 4.8 14.5 0.00 0.03 0.03 70 1012.5
20260505031159 8 6 8.0 19.3 0.00 0.03 0.03 71 1012.2
20260505030659 8 1 4.8 11.3 0.00 0.03 0.03 72 1012.2
20260505030159 8 353 6.4 11.3 0.00 0.03 0.03 72 1012.2
20260505025659 8 352 8.0 16.1 0.00 0.03 0.03 72 1012.4
20260505025159 8 349 8.0 19.3 0.00 0.03 0.03 72 1012.3
20260505024659 8 354 9.7 16.1 0.00 0.03 0.03 71 1012.4
20260505024159 8 345 8.0 16.1 0.00 0.03 0.03 71 1012.4
20260505023659 8 359 6.4 19.3 0.00 0.03 0.03 71 1012.3
20260505023159 8 21 4.8 16.1 0.03 0.03 0.03 71 1012.2
20260505022700 8 20 4.8 11.3 0.03 0.03 0.03 71 1012.3
20260505021159 8 356 4.8 11.3 0.03 0.03 0.03 70 1012.2
20260505020659 8 4 6.4 12.9 0.03 0.03 0.03 69 1012.5
20260505020159 8 356 6.4 19.3 0.03 0.03 0.03 68 1012.7
20260505015659 8 359 9.7 19.3 0.03 0.03 0.03 67 1012.6
20260505015159 9 7 9.7 19.3 0.03 0.03 0.03 65 1012.4
20260505014659 9 36 9.7 22.5 0.03 0.03 0.03 62 1012.2
20260505014159 10 350 9.7 19.3 0.03 0.03 0.03 59 1012.1
20260505013200 10 43 4.8 12.9 0.00 0.00 0.00 59 1012.4
20260505012659 10 26 6.4 19.3 0.00 0.00 0.00 57 1012.3
20260505012159 10 354 4.8 16.1 0.00 0.00 0.00 57 1012.3
20260505011159 12 46 6.4 24.1 0.00 0.00 0.00 53 1012.1
20260505010659 12 344 11.3 19.3 0.00 0.00 0.00 44 1011.5
20260505010200 12 5 1.6 12.9 0.00 0.00 0.00 43 1011.4
20260505005700 13 355 9.7 16.1 0.00 0.00 0.00 42 1011.4
20260505005200 13 346 8.0 19.3 0.00 0.00 0.00 40 1011.4
20260505004659 13 26 9.7 19.3 0.00 0.00 0.00 38 1011.1
20260505004159 13 349 4.8 14.5 0.00 0.00 0.00 37 1010.9
20260505003659 13 7 4.8 14.5 0.00 0.00 0.00 36 1010.6
20260505003159 14 347 8.0 19.3 0.00 0.00 0.00 35 1010.5
20260505002659 14 27 3.2 14.5 0.00 0.00 0.00 36 1010.4
20260505002159 14 17 8.0 16.1 0.00 0.00 0.00 35 1010.3
20260505001700 14 31 14.5 29.0 0.00 0.00 0.00 35 1010.1
20260505001159 15 23 14.5 24.1 0.00 0.00 0.00 34 1010.0
20260505000659 15 13 8.0 19.3 0.00 0.00 0.00 34 1009.9
20260505000159 15 26 9.7 29.0 0.00 0.00 0.00 33 1009.8
20260504235700 16 20 9.7 19.3 0.00 0.00 0.00 32 1009.9
20260504235200 16 5 6.4 19.3 0.00 0.00 0.00 32 1009.8
20260504234659 16 10 9.7 22.5 0.00 0.00 0.00 32 1009.7
20260504234200 16 35 9.7 19.3 0.00 0.00 0.00 32 1009.7
20260504233659 16 50 1.6 4.8 0.00 0.00 0.00 33 1009.9
20260504233200 17 42 3.2 9.7 0.00 0.00 0.00 32 1009.9
20260504232659 17 49 0.0 3.2 0.00 0.00 0.00 32 1010.1
20260504232159 17 27 1.6 4.8 0.00 0.00 0.00 31 1010.0
20260504231659 17 227 0.0 1.6 0.00 0.00 0.00 30 1009.9
20260504230700 17 135 0.0 1.6 0.00 0.00 0.00 34 1009.8
20260504230200 16 123 1.6 4.8 0.00 0.00 0.00 35 1009.9
20260504225700 16 143 3.2 11.3 0.00 0.00 0.00 34 1009.9
20260504225159 16 229 3.2 11.3 0.00 0.00 0.00 34 1009.8
20260504224659 16 142 0.0 4.8 0.00 0.00 0.00 36 1009.9
20260504224200 15 178 1.6 11.3 0.00 0.00 0.00 35 1010.2
20260504223659 16 178 3.2 14.5 0.00 0.00 0.00 35 1010.1
20260504222659 15 171 8.0 20.9 0.00 0.00 0.00 34 1010.1
20260504221659 14 202 3.2 16.1 0.00 0.00 0.00 36 1010.3
20260504221200 14 176 3.2 29.0 0.00 0.00 0.00 41 1010.4
20260504220700 15 203 8.0 29.0 0.00 0.00 0.00 37 1010.6
20260504220200 16 211 4.8 19.3 0.00 0.00 0.00 31 1010.5
20260504215700 16 242 3.2 14.5 0.00 0.00 0.00 30 1010.2
20260504215200 16 204 0.0 16.1 0.00 0.00 0.00 28 1010.3
20260504214659 17 4 11.3 25.7 0.00 0.00 0.00 27 1010.2
20260504214200 17 323 11.3 27.4 0.00 0.00 0.00 24 1009.8
20260504213700 17 355 11.3 22.5 0.00 0.00 0.00 24 1009.5
20260504213200 17 339 9.7 19.3 0.00 0.00 0.00 23 1009.3
20260504212159 18 337 4.8 14.5 0.00 0.00 0.00 22 1009.3
20260504211659 18 294 1.6 3.2 0.00 0.00 0.00 20 1009.2
20260504211200 18 123 0.0 4.8 0.00 0.00 0.00 21 1009.2
20260504210200 18 235 4.8 11.3 0.00 0.00 0.00 21 1009.2
20260504205700 18 229 4.8 14.5 0.00 0.00 0.00 21 1009.2
20260504205200 18 225 6.4 11.3 0.00 0.00 0.00 21 1009.4
20260504204700 19 241 4.8 14.5 0.00 0.00 0.00 21 1009.4
20260504204200 19 335 3.2 9.7 0.00 0.00 0.00 21 1009.5
20260504203700 19 294 9.7 16.1 0.00 0.00 0.00 21 1009.7
20260504202700 18 280 4.8 14.5 0.00 0.00 0.00 22 1009.8
20260504202200 18 252 8.0 19.3 0.00 0.00 0.00 21 1009.9
20260504201700 18 321 8.0 16.1 0.00 0.00 0.00 22 1009.9
20260504201200 18 344 3.2 12.9 0.00 0.00 0.00 21 1009.9
20260504200700 17 339 3.2 16.1 0.00 0.00 0.00 21 1009.9
20260504200159 17 1 11.3 27.4 0.00 0.00 0.00 21 1009.9
20260504195700 18 306 19.3 37.0 0.00 0.00 0.00 21 1010.1
20260504195200 18 314 4.8 32.2 0.00 0.00 0.00 18 1009.9
20260504194700 19 354 3.2 12.9 0.00 0.00 0.00 17 1009.9
20260504194200 19 267 3.2 11.3 0.00 0.00 0.00 17 1009.9
20260504193700 19 260 4.8 19.3 0.00 0.00 0.00 16 1010.0
20260504193200 20 80 0.0 4.8 0.00 0.00 0.00 16 1009.9
20260504192700 20 235 3.2 16.1 0.00 0.00 0.00 16 1010.0
20260504191700 20 123 0.0 4.8 0.00 0.00 0.00 16 1010.1
20260504190659 20 248 9.7 19.3 0.00 0.00 0.00 16 1010.3
20260504190159 19 215 6.4 12.9 0.00 0.00 0.00 17 1010.4
20260504185700 20 275 9.7 20.9 0.00 0.00 0.00 17 1010.5
20260504185200 19 162 1.6 11.3 0.00 0.00 0.00 18 1010.5
20260504184659 20 279 1.6 9.7 0.00 0.00 0.00 17 1010.5
20260504184200 19 242 3.2 9.7 0.00 0.00 0.00 17 1010.6
20260504183700 20 245 3.2 19.3 0.00 0.00 0.00 17 1010.7
20260504183159 20 241 4.8 9.7 0.00 0.00 0.00 16 1011.0
20260504182700 19 283 3.2 4.8 0.00 0.00 0.00 18 1011.1
20260504182200 19 135 0.0 8.0 0.00 0.00 0.00 19 1011.2
20260504181700 18 221 3.2 8.0 0.00 0.00 0.00 19 1011.3
20260504181200 18 249 3.2 11.3 0.00 0.00 0.00 19 1011.3
20260504180700 17 4 6.4 19.3 0.00 0.00 0.00 20 1011.3
20260504180159 17 274 1.6 20.9 0.00 0.00 0.00 21 1011.4
20260504175700 18 248 4.8 19.3 0.00 0.00 0.00 20 1011.5
20260504174700 18 290 6.4 25.7 0.00 0.00 0.00 22 1011.5
20260504174201 18 253 4.8 12.9 0.00 0.00 0.00 22 1011.6
20260504173700 18 256 8.0 24.1 0.00 0.00 0.00 21 1011.7
20260504173200 18 252 3.2 9.7 0.00 0.00 0.00 22 1011.7
20260504172700 18 259 4.8 14.5 0.00 0.00 0.00 22 1011.8
20260504172200 18 237 1.6 16.1 0.00 0.00 0.00 22 1011.8
20260504171701 18 228 1.6 12.9 0.00 0.00 0.00 22 1011.9
20260504171200 18 235 1.6 19.3 0.00 0.00 0.00 24 1012.0
20260504170200 17 298 9.7 20.9 0.00 0.00 0.00 26 1012.1
20260504150700 14 330 12.9 20.9 0.00 0.00 0.00 32 1013.0
20260504150201 14 298 12.9 20.9 0.00 0.00 0.00 32 1012.9